Date String (YYYY-MM-DD hh:mm:ss) UTC,Instrument flags,Ambient pressure (hPa),Sample flow (lpm),Bypass flow (lpm),Sample temperature (°C),Ambient temperature (°C),ASC tube jacket temperature (°C),LED temperature (°C),Box temperature (°C),Sample RH (%),Span deviation,Mass concentration (μg/m³),Mass concentration (μg/m³),Mass concentration (μg/m³)
DateTimeUTC,F1_M11,P_M11,Q1_M11,Q2_M11,T1_M11,T2_M11,T3_M11,T4_M11,T5_M11,U1_M11,ZSPAN_M11,X0_M11,X2_M11,X1_M11
2023-02-12 01:00:00,,0822.4,5.01,0.00,26.6,25.1,00.0,35.4,28.4,08.4,0000.0,0012.25,0008.47,0007.94
2023-02-12 01:01:00,,0822.4,5.00,0.00,26.6,25.1,00.0,35.4,28.4,08.4,0000.0,0012.47,0008.67,0008.15
2023-02-12 01:02:00,,0822.4,5.00,0.00,26.5,25.1,00.0,35.4,28.4,08.6,0000.0,0013.08,0008.90,0008.38
2023-02-12 01:03:00,,0822.4,5.00,0.00,26.5,25.0,00.0,35.4,28.4,08.6,0000.0,0013.45,0009.15,0008.62
2023-02-12 01:04:00,,0822.4,5.00,0.00,26.5,24.9,00.0,35.4,28.3,08.6,0000.0,0013.45,0009.40,0008.85
2023-02-12 01:05:00,,0822.4,4.99,0.00,26.5,24.9,00.0,35.4,28.3,08.6,0000.0,0013.68,0009.59,0009.04
2023-02-12 01:06:00,,0822.3,5.02,0.00,26.5,24.9,00.0,35.4,28.3,08.6,0000.7,0014.19,0009.77,0009.19
2023-02-12 01:07:00,,0822.3,5.00,0.00,26.5,24.8,00.0,35.4,28.3,08.8,0006.2,0014.32,0009.94,0009.35
2023-02-12 01:08:00,,0822.3,5.00,0.00,26.5,24.8,00.0,35.4,28.3,08.7,0006.0,0014.91,0010.08,0009.47
2023-02-12 01:09:00,,0822.2,4.96,0.00,26.5,24.7,00.0,35.4,28.3,08.6,0005.7,0015.37,0010.21,0009.56
2023-02-12 01:10:00,,0822.3,4.96,0.00,26.5,24.8,00.0,35.4,28.3,08.7,0006.1,0015.75,0010.29,0009.65
2023-02-12 01:11:00,,0822.3,4.97,0.00,26.4,24.8,00.0,35.3,28.3,08.9,0006.5,0016.27,0010.42,0009.77
2023-02-12 01:12:00,,0822.3,4.98,0.00,26.4,24.7,00.0,35.3,28.3,08.6,0006.4,0016.82,0010.48,0009.83
2023-02-12 01:13:00,,0822.3,5.01,0.00,26.4,24.6,00.0,35.3,28.2,08.6,0006.4,0017.23,0010.48,0009.81
2023-02-12 01:14:00,,0822.3,5.03,0.00,26.4,24.6,00.0,35.3,28.2,08.7,0006.0,0017.42,0010.45,0009.81
2023-02-12 01:15:00,,0822.3,5.00,0.00,26.4,24.5,00.0,35.3,28.1,09.1,0005.9,0018.17,0010.56,0009.93
2023-02-12 01:16:00,,0822.3,5.03,0.00,26.3,24.5,00.0,35.3,28.1,08.7,0005.5,0018.52,0010.64,0009.96
2023-02-12 01:17:00,,0822.3,4.99,0.00,26.3,24.4,00.0,35.3,28.1,09.4,0005.6,0018.72,0010.82,0010.10
2023-02-12 01:18:00,,0822.2,4.98,0.00,26.3,24.3,00.0,35.2,28.0,09.6,0001.5,0019.23,0011.10,0010.35
2023-02-12 01:19:00,,0822.3,5.00,0.00,26.2,24.2,00.0,35.2,27.9,09.9,0005.7,0019.24,0011.40,0010.63
2023-02-12 01:20:00,,0822.3,5.00,0.00,26.2,24.1,00.0,35.2,27.8,10.7,0004.0,0019.44,0011.76,0011.00
2023-02-12 01:21:00,,0822.3,5.00,0.00,26.1,24.0,00.0,35.2,27.8,10.6,0006.1,0020.10,0012.25,0011.40
2023-02-12 01:22:00,,0822.3,5.01,0.00,26.1,23.9,00.0,35.1,27.7,10.3,0006.0,0020.44,0012.56,0011.68
2023-02-12 01:23:00,,0822.3,5.01,0.00,26.0,23.8,00.0,35.1,27.6,10.1,0006.0,0020.25,0012.83,0011.92
2023-02-12 01:24:00,,0822.3,5.00,0.00,26.0,23.7,00.0,35.1,27.6,09.9,0006.0,0020.15,0013.08,0012.16
2023-02-12 01:25:00,,0822.3,4.98,0.00,25.9,23.6,00.0,35.0,27.5,09.8,0006.1,0020.11,0013.30,0012.35
2023-02-12 01:26:00,,0822.2,5.00,0.00,25.8,23.5,00.0,35.0,27.4,09.6,0006.1,0020.02,0013.34,0012.37
2023-02-12 01:27:00,,0822.2,4.99,0.00,25.8,23.5,00.0,34.9,27.4,09.7,0006.4,0019.71,0013.30,0012.36
2023-02-12 01:28:00,,0822.2,5.01,0.00,25.7,23.4,00.0,34.9,27.3,09.9,0006.5,0019.14,0013.12,0012.25
2023-02-12 01:29:00,,0822.2,5.01,0.00,25.7,23.3,00.0,34.9,27.3,09.6,0006.6,0019.21,0012.81,0011.96
2023-02-12 01:30:00,,0822.2,5.00,0.00,25.6,23.3,00.0,34.8,27.2,09.3,0006.6,0018.96,0012.47,0011.65
2023-02-12 01:31:00,,0822.2,5.00,0.00,25.6,23.3,00.0,34.8,27.2,09.4,0004.0,0018.55,0012.09,0011.29
2023-02-12 01:32:00,,0822.2,4.99,0.00,25.5,23.2,00.0,34.7,27.1,09.9,0006.3,0018.05,0011.84,0011.04
2023-02-12 01:33:00,,0822.2,5.01,0.00,25.5,23.2,00.0,34.7,27.1,09.3,0001.1,0017.20,0011.47,0010.72
2023-02-12 01:34:00,,0822.2,5.02,0.00,25.4,23.2,00.0,34.7,27.1,09.5,0000.0,0017.33,0011.19,0010.47
2023-02-12 01:35:00,,0822.2,4.98,0.00,25.4,23.2,00.0,34.6,27.0,09.3,0003.1,0017.22,0010.92,0010.23
2023-02-12 01:36:00,,0822.2,5.00,0.00,25.4,23.1,00.0,34.6,27.0,09.3,0001.7,0016.95,0010.66,0009.98
2023-02-12 01:37:00,,0822.2,4.98,0.00,25.3,23.1,00.0,34.5,27.0,09.1,0004.7,0016.39,0010.38,0009.74
2023-02-12 01:38:00,,0822.3,5.01,0.00,25.3,23.1,00.0,34.5,26.9,09.1,0007.4,0015.99,0010.13,0009.49
2023-02-12 01:39:00,,0822.3,4.99,0.00,25.3,23.1,00.0,34.5,26.9,09.3,0007.3,0015.57,0009.91,0009.25
2023-02-12 01:40:00,,0822.4,5.01,0.00,25.2,23.1,00.0,34.4,26.8,09.4,0007.2,0014.87,0009.69,0009.05
2023-02-12 01:41:00,,0822.4,5.01,0.00,25.2,23.0,00.0,34.4,26.8,09.4,0007.1,0014.47,0009.52,0008.86
2023-02-12 01:42:00,,0822.4,5.00,0.00,25.2,23.0,00.0,34.4,26.7,09.6,0007.4,0014.43,0009.33,0008.66
2023-02-12 01:43:00,,0822.4,5.01,0.00,25.1,22.9,00.0,34.3,26.7,09.8,0007.3,0015.06,0008.94,0008.33
2023-02-12 01:44:00,,0822.4,4.99,0.00,25.1,22.9,00.0,34.3,26.7,09.8,0007.1,0015.35,0008.81,0008.15
2023-02-12 01:45:00,,0822.3,5.02,0.00,25.1,22.9,00.0,34.2,26.6,09.8,0006.7,0015.86,0008.68,0007.98
2023-02-12 01:46:00,,0822.4,4.99,0.00,25.0,22.9,00.0,34.2,26.6,09.8,0001.0,0016.19,0008.59,0007.85
2023-02-12 01:47:00,,0822.3,5.01,0.00,25.0,22.8,00.0,34.2,26.6,09.7,0000.0,0016.41,0008.56,0007.80
2023-02-12 01:48:00,,0822.3,5.00,0.00,24.9,22.8,00.0,34.1,26.6,09.8,0000.0,0016.48,0008.62,0007.81
2023-02-12 01:49:00,,0822.2,4.99,0.00,24.9,22.8,00.0,34.1,26.5,09.9,0000.0,0017.01,0008.69,0007.84
2023-02-12 01:50:00,,0822.2,5.00,0.00,24.9,22.7,00.0,34.1,26.5,09.9,0000.0,0017.48,0008.82,0007.94
2023-02-12 01:51:00,,0822.2,4.99,0.00,24.9,22.7,00.0,34.0,26.5,10.0,0000.0,0017.85,0008.95,0008.01
2023-02-12 01:52:00,,0822.2,5.02,0.00,24.8,22.7,00.0,34.0,26.5,10.0,0000.0,0018.18,0009.04,0008.07
2023-02-12 01:53:00,,0822.2,5.01,0.00,24.8,22.7,00.0,34.0,26.5,10.1,0000.0,0018.31,0009.06,0008.12
2023-02-12 01:54:00,,0822.2,4.98,0.00,24.8,22.7,00.0,33.9,26.4,10.1,0000.0,0017.56,0009.09,0008.18
2023-02-12 01:55:00,,0822.2,4.98,0.00,24.7,22.7,00.0,33.9,26.4,10.2,0000.0,0017.47,0009.13,0008.21
2023-02-12 01:56:00,,0822.2,4.99,0.00,24.7,22.7,00.0,33.9,26.4,10.2,0000.0,0016.75,0009.13,0008.26
2023-02-12 01:57:00,,0822.2,5.00,0.00,24.7,22.7,00.0,33.8,26.4,10.4,0000.0,0016.42,0009.15,0008.29
2023-02-12 01:58:00,,0822.2,5.01,0.00,24.7,22.6,00.0,33.8,26.3,10.5,0000.0,0016.77,0009.16,0008.31
2023-02-12 01:59:00,,0822.2,4.99,0.00,24.7,22.6,00.0,33.8,26.3,10.5,0000.0,0016.82,0009.14,0008.31
